This demonstration page uses our WeatherBlox Daily Observations layout. Learn more.

Left ArrowRight Arrow

39.51506, -84.39828

Hourly Observations for July 1, 2015

Temp ( °F °C ) Dew Point ( °F °C ) Humidity (%) Winds ( mph kmh ) Pressure ( in mb ) Visibility ( mi km ) Precip ( " mm )
12:15 am 00:15 Clear 67 19.5 63 17.3 87 87 SSW 3 6 29.85 1011 7 11 N/A
12:35 am 00:35 Clear with Mist and Fog 65 18.2 61 16.3 89 89 SW 3 6 29.85 1011 4 6 N/A
12:55 am 00:55 Clear with Mist and Fog 64 18 61 16.1 89 89 WSW 3 6 29.85 1011 4 6 N/A
1:15 am 01:15 Partly Cloudy with Mist and Fog 64 18 61 16.2 89 89 N N/A 29.88 1012 5 8 N/A
1:35 am 01:35 Partly Cloudy 65 18.1 61 16.3 89 89 N N/A 29.88 1012 7 11 N/A
1:55 am 01:55 Clear 64 18 61 16 88 88 N N/A 29.88 1012 10 16 N/A
2:15 am 02:15 Clear 63 17.3 60 15.4 89 89 N N/A 29.88 1012 7 11 N/A
2:35 am 02:35 Clear 64 18 61 16.1 89 89 N N/A 29.88 1012 10 16 N/A
2:55 am 02:55 Clear 64 18 61 15.9 88 88 N N/A 29.88 1012 10 16 N/A
3:15 am 03:15 Clear 64 18 61 16 88 88 N N/A 29.85 1011 10 16 N/A
3:35 am 03:35 Clear 64 18 60 15.8 87 87 N N/A 29.85 1011 10 16 N/A
3:55 am 03:55 Clear 62 16.9 59 14.9 88 88 N N/A 29.85 1011 7 11 N/A
4:15 am 04:15 Partly Cloudy 63 17 59 15 88 88 N N/A 29.88 1012 7 11 N/A
4:35 am 04:35 Partly Cloudy 64 17.5 60 15.7 89 89 N N/A 29.88 1012 7 11 N/A
4:55 am 04:55 Partly Cloudy 63 17.4 60 15.4 88 88 N N/A 29.88 1012 7 11 N/A
5:15 am 05:15 Partly Cloudy 63 17.3 59 15.2 88 88 N N/A 29.88 1012 7 11 N/A
5:35 am 05:35 Partly Cloudy with Mist and Fog 62 16.8 59 14.8 88 88 undefined N/A N/A 5 8 N/A
5:55 am 05:55 Clear with Mist and Fog 62 16.6 58 14.7 89 89 N N/A 29.88 1012 5 8 N/A
6:15 am 06:15 Sunny with Mist and Fog 61 16 57 14 88 88 N N/A 29.88 1012 4 6 N/A
6:35 am 06:35 Mostly Cloudy with Fog 60 15.8 57 14 89 89 N N/A 29.88 1012 1 1 N/A
6:55 am 06:55 Mostly Cloudy with Fog 60 15.5 57 13.9 90 90 N N/A 29.88 1012 1 1 N/A
7:15 am 07:15 Mostly Cloudy with Mist and Fog 61 16 58 14.3 90 90 N N/A 29.88 1012 2 3 N/A
7:35 am 07:35 Partly Cloudy with Mist and Fog 62 16.6 59 15.1 91 91 N N/A 29.88 1012 3 5 N/A
7:55 am 07:55 Mostly Cloudy with Mist and Fog 63 17.1 60 15.6 91 91 N N/A 29.91 1013 5 8 N/A
8:15 am 08:15 Cloudy N/A N/A N/A undefined N/A N/A 7 11 N/A
8:35 am 08:35 undefined N/A N/A N/A N N/A N/A N/A N/A
8:55 am 08:55 undefined N/A N/A N/A undefined N/A N/A N/A N/A
9:15 am 09:15 undefined N/A N/A N/A undefined N/A N/A N/A N/A
9:35 am 09:35 undefined N/A N/A N/A undefined N/A N/A N/A N/A
9:55 am 09:55 undefined N/A N/A N/A undefined N/A N/A N/A N/A
10:15 am 10:15 undefined N/A N/A N/A undefined N/A N/A N/A N/A
10:35 am 10:35 undefined 74 23.6 61 16.3 64 64 N 6 9 29.94 1014 10 16 N/A
10:55 am 10:55 Sunny 74 23.6 61 16.1 63 63 ENE 5 7 29.91 1013 10 16 N/A
11:15 am 11:15 Sunny 74 23.6 59 14.9 58 58 N N/A N/A 10 16 N/A
11:35 am 11:35 undefined N/A N/A N/A undefined N/A N/A N/A N/A
11:55 am 11:55 undefined N/A N/A N/A undefined N/A N/A N/A N/A
12:15 pm 12:15 undefined N/A N/A N/A undefined N/A N/A N/A N/A
12:35 pm 12:35 undefined N/A N/A N/A WNW 7 11 N/A N/A N/A
12:55 pm 12:55 Mostly Cloudy 77 25.1 59 15.1 54 54 undefined N/A 29.94 1014 10 16 N/A
1:15 pm 13:15 undefined N/A N/A N/A undefined N/A N/A N/A N/A
1:35 pm 13:35 undefined N/A N/A N/A undefined N/A N/A N/A N/A
1:55 pm 13:55 undefined N/A N/A N/A undefined N/A N/A N/A N/A
2:15 pm 14:15 undefined N/A N/A N/A undefined N/A N/A N/A N/A
2:35 pm 14:35 undefined N/A N/A N/A undefined N/A N/A N/A N/A
2:55 pm 14:55 undefined N/A N/A N/A undefined N/A N/A N/A N/A
3:15 pm 15:15 undefined N/A N/A N/A undefined N/A N/A N/A N/A
3:35 pm 15:35 undefined N/A N/A N/A undefined N/A N/A N/A N/A
3:55 pm 15:55 undefined N/A N/A N/A undefined N/A N/A N/A N/A
4:15 pm 16:15 undefined N/A N/A N/A undefined N/A N/A N/A N/A
4:35 pm 16:35 undefined N/A N/A N/A undefined N/A N/A N/A N/A
4:55 pm 16:55 undefined N/A N/A N/A undefined N/A N/A N/A N/A
5:15 pm 17:15 undefined N/A N/A N/A undefined N/A N/A N/A N/A
5:35 pm 17:35 undefined N/A N/A N/A undefined N/A N/A N/A N/A
5:55 pm 17:55 undefined N/A N/A N/A undefined N/A N/A N/A N/A
6:15 pm 18:15 undefined N/A N/A N/A undefined N/A N/A N/A N/A
6:35 pm 18:35 undefined N/A N/A N/A undefined N/A N/A N/A N/A
6:55 pm 18:55 undefined N/A N/A N/A undefined N/A N/A N/A N/A
7:15 pm 19:15 undefined N/A N/A N/A undefined N/A N/A N/A N/A
7:35 pm 19:35 undefined N/A N/A N/A undefined N/A N/A N/A N/A
7:55 pm 19:55 undefined N/A N/A N/A undefined N/A N/A N/A N/A
8:15 pm 20:15 undefined N/A N/A N/A undefined N/A N/A N/A N/A
8:35 pm 20:35 undefined N/A N/A N/A undefined N/A N/A N/A N/A
8:55 pm 20:55 undefined N/A N/A N/A undefined N/A N/A N/A N/A
9:15 pm 21:15 undefined N/A N/A N/A undefined N/A N/A N/A N/A
9:35 pm 21:35 undefined N/A N/A N/A undefined N/A N/A N/A N/A
9:55 pm 21:55 undefined N/A N/A N/A undefined N/A N/A N/A N/A
10:15 pm 22:15 undefined N/A N/A N/A undefined N/A N/A N/A N/A
10:35 pm 22:35 undefined N/A N/A N/A undefined N/A N/A N/A N/A
10:55 pm 22:55 undefined N/A N/A N/A undefined N/A N/A N/A N/A
11:15 pm 23:15 undefined N/A N/A N/A undefined N/A N/A N/A N/A
11:35 pm 23:35 undefined N/A N/A N/A undefined N/A N/A N/A N/A
11:55 pm 23:55 undefined N/A N/A N/A undefined N/A N/A N/A N/A

Powered by AerisWeather